TimePDT,TemperatureF,Dew PointF,Humidity,Sea Level PressureIn,VisibilityMPH,Wind Direction,Wind SpeedMPH,Gust SpeedMPH,PrecipitationIn,Events,Conditions,WindDirDegrees,DateUTC
12:56 AM,51.1,46.0,83,29.93,8.0,WNW,6.9,-,N/A,,Clear,290,2013-05-31 07:56:00
1:56 AM,51.1,46.0,83,29.93,8.0,WNW,8.1,-,N/A,,Clear,300,2013-05-31 08:56:00
2:56 AM,51.1,46.0,83,29.92,9.0,WNW,6.9,-,N/A,,Clear,300,2013-05-31 09:56:00
3:56 AM,50.0,46.0,86,29.91,8.0,WNW,4.6,-,N/A,,Clear,290,2013-05-31 10:56:00
4:56 AM,50.0,46.0,86,29.91,8.0,NW,4.6,-,N/A,,Clear,310,2013-05-31 11:56:00
5:56 AM,50.0,46.0,86,29.92,6.0,Calm,Calm,-,N/A,,Clear,0,2013-05-31 12:56:00
6:56 AM,55.0,46.0,72,29.94,9.0,Variable,3.5,-,N/A,,Clear,0,2013-05-31 13:56:00
7:56 AM,64.0,44.1,48,29.94,10.0,Calm,Calm,-,N/A,,Clear,0,2013-05-31 14:56:00
8:56 AM,71.1,44.1,38,29.94,10.0,WNW,11.5,-,N/A,,Clear,300,2013-05-31 15:56:00
9:56 AM,73.0,46.0,38,29.94,10.0,NW,11.5,-,N/A,,Clear,310,2013-05-31 16:56:00
10:56 AM,75.9,48.0,37,29.91,10.0,NW,16.1,-,N/A,,Clear,320,2013-05-31 17:56:00
11:56 AM,80.1,48.0,32,29.90,10.0,NW,15.0,-,N/A,,Clear,320,2013-05-31 18:56:00
12:56 PM,81.0,48.9,33,29.88,10.0,NNW,18.4,-,N/A,,Clear,330,2013-05-31 19:56:00
1:56 PM,79.0,45.0,30,29.88,10.0,NW,18.4,24.2,N/A,,Clear,310,2013-05-31 20:56:00
2:56 PM,80.1,41.0,25,29.88,10.0,NW,23.0,33.4,N/A,,Clear,320,2013-05-31 21:56:00
3:56 PM,80.1,39.9,24,29.87,10.0,NW,20.7,27.6,N/A,,Clear,320,2013-05-31 22:56:00
4:56 PM,73.0,46.0,38,29.86,10.0,NW,17.3,23.0,N/A,,Clear,320,2013-05-31 23:56:00
5:56 PM,66.9,48.0,51,29.86,10.0,NW,17.3,-,N/A,,Clear,320,2013-06-01 00:56:00
6:56 PM,63.0,48.0,58,29.86,10.0,NW,15.0,-,N/A,,Clear,310,2013-06-01 01:56:00
7:56 PM,57.9,48.0,70,29.88,8.0,NW,12.7,-,N/A,,Clear,310,2013-06-01 02:56:00
8:56 PM,55.0,48.0,77,29.89,9.0,WNW,6.9,-,N/A,,Clear,290,2013-06-01 03:56:00
9:56 PM,53.1,48.0,83,29.90,8.0,West,5.8,-,N/A,,Clear,280,2013-06-01 04:56:00
10:56 PM,53.1,48.0,83,29.89,8.0,Calm,Calm,-,N/A,,Clear,0,2013-06-01 05:56:00
11:56 PM,52.0,48.0,86,29.89,7.0,NW,3.5,-,N/A,,Clear,310,2013-06-01 06:56:00